Location: Holyhead Bay
(53.3667°N, 4.6667°W)
Time: 18:40:18
(UTC+00:00)

USA 281 - Pass Details

Date: 24 November 2020
Orbit: 1074 x 1084 km, 106.0° (Epoch: 08 January)

Event Time Altitude Azimuth Distance (km) Brightness Sun altitude
Rises 17:55:32 0° 138° (SE) 3,875 5.9 -15.1°
Reaches altitude 10° 17:58:03 10° 136° (SE) 2,921 5.2 -15.4°
Maximum altitude 18:04:33 69° 56° (NE) 1,156 3.2 -16.4°
Drops below altitude 10° 18:11:05 10° 335° (NNW) 2,930 5.7 -17.3°
Sets 18:13:36 0° 333° (NNW) 3,888 6.4 -17.7°
